CAPE
0 0 0 0 0 0 0 0 16 78 200 423 367 370 450 1207 1412 1319 972 752 428 366 716 636 230 1 0 0 16 69 262 222 186 296 503 649 429 377 279 115 151 0 11 8
0 0 0 0 0 0 0 0 2 13 49 150 332 265 295 1109 605 1012 980 749 619 316 69 1 0 0 0 0 0 0 21 154 160 173 293 480 475 443 212 166 158 91 14 0
0 0 0 0 0 0 0 0 0 0 3 55 231 235 367 594 680 574 494 656 265 321 79 4 0 0 0 0 0 0 0 0 46 110 157 192 296 353 312 274 205 352 354 187
0 0 0 0 0 0 0 0 0 0 11 15 0 62 387 647 660 604 754 724 390 423 75 28 4 5 0 0 0 0 0 0 0 42 121 203 211 217 276 281 229 252 301 263
0 0 0 0 0 0 0 0 0 0 0 0 0 13 208 652 587 480 491 441 479 214 85 22 0 0 0 0 0 0 0 0 0 0 0 42 117 238 197 145 127 118 100 96
0 0 0 0 0 0 0 0 0 0 0 5 0 0 178 352 470 356 398 260 200 60 22 1 7 10 0 0 0 0 0 0 0 0 0 0 0 4 11 0 21 210 173 87
0 0 0 0 0 0 0 0 0 0 0 0 13 25 156 163 179 169 242 90 5 4 19 31 22 2 0 0 0 0 0 0 0 0 0 0 0 6 2 0 0 59 202 132
0 0 0 0 0 0 0 0 0 0 0 1 16 25 8 19 54 262 236 57 36 53 52 39 18 1 0 0 0 0 0 0 0 0 0 0 1 11 10 1 0 0 173 68
0 0 0 0 0 0 0 0 0 0 0 0 0 0 0 0 0 204 115 43 80 47 51 44 36 29 17 9 0 0 0 0 0 0 0 0 0 0 0 0 0 7 33 41
0 0 0 0 0 0 0 0 0 0 0 0 0 0 0 0 12 57 77 77 74 77 42 41 42 28 17 7 0 0 0 0 0 0 0 0 0 0 0 0 0 0 0 0
0 0 0 0 0 0 0 0 0 0 0 0 0 0 0 26 25 31 58 67 75 61 47 58 39 18 7 1 0 0 0 0 0 0 0 0 0 0 0 0 0 0 0 0
0 0 0 0 0 0 0 0 0 0 0 0 0 0 0 4 17 34 47 61 55 22 38 30 4 2 0 0 0 4 0 2 0 0 0 0 0 0 0 3 3 7 3 0
0 0 0 0 0 0 0 0 0 0 0 0 0 0 0 6 16 34 44 22 1 0 0 2 2 0 0 0 1 3 7 4 0 0 0 0 0 0 4 6 8 1 2 7
0 0 0 0 0 0 0 0 0 0 0 0 0 0 0 1 16 17 4 0 0 0 0 0 0 0 0 0 5 7 15 12 2 0 0 0 0 0 0 3 10 3 0 37
0 0 0 0 0 0 0 0 0 0 0 0 0 0 0 0 0 0 0 0 0 0 0 0 0 0 0 22 37 50 45 15 1 0 0 0 0 0 7 2 1 4 12 10
0 0 0 0 0 0 0 0 0 0 0 0 0 0 0 0 0 0 0 0 0 0 0 0 5 21 45 53 52 44 21 13 8 0 0 0 0 3 2 4 0 0 0 0
0 0 0 0 0 0 0 0 0 0 0 0 0 0 0 0 0 0 0 0 0 0 7 27 38 50 56 46 25 43 13 17 2 0 0 0 4 0 0 2 2 0 0 0
0 0 0 0 0 0 0 0 0 0 0 0 0 0 0 0 0 0 0 0 0 4 37 49 36 18 18 32 46 35 27 17 7 0 0 0 0 0 0 6 2 0 0 0
0 0 0 0 0 0 0 0 0 0 0 0 0 0 0 0 0 0 0 0 0 9 13 15 11 17 16 5 18 31 27 23 7 0 0 0 0 9 23 1 0 0 0 0
0 0 0 0 0 0 0 0 0 0 0 0 0 0 0 0 0 0 0 0 6 12 18 15 24 28 17 4 1 34 32 12 0 0 0 0 2 3 0 0 0 0 0 0
0 0 0 0 0 0 0 0 0 0 0 0 0 0 0 0 0 0 0 4 9 15 10 13 4 3 0 0 28 38 14 0 0 0 0 0 0 0 0 0 0 0 0 0
0 0 0 0 0 0 0 0 0 0 0 0 0 0 0 0 0 0 0 0 0 0 21 28 3 0 0 12 13 18 0 0 0 0 0 0 0 0 0 0 0 0 0 0
0 0 0 0 0 0 0 0 0 0 0 0 0 0 0 0 0 0 0 0 0 0 0 0 0 10 0 9 19 0 0 0 0 1 0 0 0 0 0 0 0 0 0 0
0 0 0 0 0 0 0 0 0 0 0 0 0 0 0 0 0 0 0 0 0 0 0 0 0 0 0 0 4 0 0 0 0 0 0 3 0 0 0 0 0 0 0 0
0 0 0 0 0 0 0 0 0 0 0 0 0 0 0 0 0 0 0 0 0 0 0 0 0 0 2 12 4 0 0 0 0 0 16 2 0 0 0 0 0 0 0 0
0 0 0 0 0 0 0 0 0 0 0 0 0 0 0 0 0 0 0 0 0 0 0 0 0 12 6 1 0 0 0 3 0 1 13 0 0 0 0 0 0 0 0 0
CIN
0 0 0 0 0 0 0 0 -105 -82 -57 -49 -36 -40 -77 -88 -96 -84 -108 -103 -99 -357 -186 -226 -362 -40 0 0 -552 -437 -316 -271 -244 -253 -186 -106 -144 -124 -131 -48 -38 0 -289 -398
0 0 0 0 0 0 0 0 -64 -54 -106 -45 -32 -24 -215 -62 -123 -178 -214 -118 -111 -88 -83 -273 0 0 0 0 0 0 -299 -255 -248 -175 -124 -62 -63 -73 -98 -96 -50 -65 -19 0
0 0 0 0 0 0 0 0 0 0 -118 -131 -36 -26 -169 -195 -255 -296 -301 -223 -415 -89 -159 -67 -96 0 0 0 0 0 0 0 -135 -81 -57 -55 -40 -36 -58 -96 -125 -72 -50 -79
0 0 0 0 0 0 0 0 0 0 -149 -17 0 -142 -119 -150 -181 -240 -273 -263 -223 -102 -98 -96 -37 -35 0 0 0 0 0 0 0 -113 -68 -18 -11 -9 -7 -7 -17 -41 -66 -62
0 0 0 0 0 0 0 0 0 0 0 -2 0 -173 -209 -128 -106 -226 -246 -272 -51 -72 -437 -81 0 0 0 0 0 0 0 0 0 0 0 -81 -28 -6 -7 -7 -5 -3 -32 -84
0 0 0 0 0 0 0 0 0 0 0 -31 0 0 -170 -123 -106 -216 -243 -238 -270 -338 -17 -14 -8 -6 0 0 0 0 0 0 0 0 0 0 0 -87 -93 0 -23 -6 -2 -25
0 0 0 0 0 0 0 0 0 0 0 -14 -75 -98 -125 -96 -137 -126 -157 -195 -11 -13 -19 -21 -10 -12 0 0 0 0 0 0 0 0 0 0 0 -24 -40 0 0 -48 -8 -8
0 0 0 0 0 0 0 0 0 0 0 -20 -97 -120 -97 -61 -96 -67 -107 -134 -5 -21 -8 -3 -21 -3 0 0 0 0 0 0 0 0 0 0 -4 -23 -13 -17 0 0 -19 -37
0 0 0 0 0 0 0 0 0 0 0 0 0 0 0 0 0 -27 -31 -48 -6 -7 -3 -16 -4 -2 -5 -11 0 0 0 0 0 0 0 0 0 0 0 0 0 -19 -24 -32
0 0 0 0 0 0 0 0 0 0 0 0 0 0 0 0 -11 -15 -1 0 -1 -2 -2 -1 0 -1 -3 -7 0 0 0 0 0 0 0 0 0 0 0 0 0 0 0 0
0 0 0 0 0 0 0 0 0 0 0 0 0 0 0 -20 -11 -4 0 0 0 0 0 0 0 -6 -9 -6 0 0 0 0 0 0 0 0 0 0 0 0 0 0 0 0
0 0 0 0 0 0 0 0 0 0 0 0 0 0 0 -55 -39 -16 -6 -4 -1 -4 0 0 -1 -5 0 0 0 -26 -27 -67 0 0 0 0 0 0 0 0 0 0 0 0
0 0 0 0 0 0 0 0 0 0 0 0 0 0 0 -68 -40 -16 -5 -5 -8 0 -3 -1 -3 0 0 0 -6 -21 -21 -5 -1 0 0 0 0 0 0 0 0 0 -1 -4
0 0 0 0 0 0 0 0 0 0 0 0 0 0 0 -27 -19 -9 -9 0 0 0 0 0 0 0 0 -8 -19 -19 -6 -3 -5 0 0 0 0 0 0 0 0 -1 -3 0
0 0 0 0 0 0 0 0 0 0 0 0 0 0 0 0 0 0 0 0 0 0 0 0 0 0 0 -24 -22 -8 -2 -5 -2 0 0 0 0 0 0 0 0 0 -1 0
0 0 0 0 0 0 0 0 0 0 0 0 0 0 0 0 0 0 0 0 0 0 0 0 -15 -25 -15 -12 -6 -86 -8 -14 -16 0 0 0 0 0 0 -5 -1 -1 0 0
0 0 0 0 0 0 0 0 0 0 0 0 0 0 0 0 0 0 0 0 0 0 -35 -14 -7 -8 -10 -17 -16 -68 -19 -12 -4 0 0 0 0 0 0 -1 0 0 0 0
0 0 0 0 0 0 0 0 0 0 0 0 0 0 0 0 0 0 0 0 0 -21 -10 -5 -3 -48 -5 -46 -20 -37 -17 -2 -1 0 0 0 0 0 0 0 0 0 0 0
0 0 0 0 0 0 0 0 0 0 0 0 0 0 0 0 0 0 0 0 -13 -11 -6 -2 -6 -74 -46 -41 -80 -18 -1 0 0 0 0 0 0 -1 0 -2 0 0 0 0
0 0 0 0 0 0 0 0 0 0 0 0 0 0 0 0 0 0 0 0 -15 -11 -5 -4 -3 -3 -34 -48 -1 -1 -1 0 0 0 0 0 -30 -13 0 0 0 0 0 0
0 0 0 0 0 0 0 0 0 0 0 0 0 0 0 0 0 0 0 -5 -4 -1 -10 -2 -5 -13 0 0 -7 0 0 0 0 0 0 0 0 0 0 0 0 0 0 0
0 0 0 0 0 0 0 0 0 0 0 0 0 0 0 0 0 0 0 0 0 0 -1 -1 0 0 0 -4 -3 0 0 0 0 0 0 0 0 0 0 0 0 0 0 0
0 0 0 0 0 0 0 0 0 0 0 0 0 0 0 0 0 0 0 0 0 0 0 0 0 0 0 0 -4 0 0 0 0 0 0 0 0 0 0 0 0 0 0 0
0 0 0 0 0 0 0 0 0 0 0 0 0 0 0 0 0 0 0 0 0 0 0 0 0 0 0 -1 -3 0 0 0 0 0 0 -3 0 0 0 0 0 0 0 0
0 0 0 0 0 0 0 0 0 0 0 0 0 0 0 0 0 0 0 0 0 0 0 0 0 0 -2 0 -1 0 0 -4 0 0 -1 -1 0 0 0 0 0 0 0 0
0 0 0 0 0 0 0 0 0 0 0 0 0 0 0 0 0 0 0 0 0 0 0 0 0 0 -1 0 0 0 0 -10 0 -1 -4 0 0 0 0 0 0 0 0 0
Wind_Speed
nan nan nan nan nan nan nan nan nan nan 12 20 12 16 15 15 17 25 32 35 28 21 14 18 12 nan nan nan nan nan 41 39 39 40 43 48 48 45 48 43 41 nan nan nan
nan nan nan nan nan nan nan nan nan nan nan 21 17 23 16 19 21 29 34 29 30 20 nan nan nan nan nan nan nan nan nan 45 43 45 45 48 49 49 48 49 46 nan nan nan
nan nan nan nan nan nan nan nan nan nan nan nan 23 26 22 20 21 25 19 28 22 29 nan nan nan nan nan nan nan nan nan nan nan 48 48 48 50 50 49 47 48 45 45 42
nan nan nan nan nan nan nan nan nan nan nan nan nan nan 12 16 14 19 23 25 25 28 nan nan nan nan nan nan nan nan nan nan nan nan 52 49 47 47 48 47 45 41 37 38
nan nan nan nan nan nan nan nan nan nan nan nan nan nan 12 18 19 17 17 19 25 27 nan nan nan nan nan nan nan nan nan nan nan nan nan nan 46 45 44 44 42 43 44 nan
nan nan nan nan nan nan nan nan nan nan nan nan nan nan 19 23 22 19 18 23 26 nan nan nan nan nan nan nan nan nan nan nan nan nan nan nan nan nan nan nan nan 45 46 nan
nan nan nan nan nan nan nan nan nan nan nan nan nan nan 20 20 24 23 25 nan nan nan nan nan nan nan nan nan nan nan nan nan nan nan nan nan nan nan nan nan nan nan 48 49
nan nan nan nan nan nan nan nan nan nan nan nan nan nan nan nan nan 28 29 nan nan nan nan nan nan nan nan nan nan nan nan nan nan nan nan nan nan nan nan nan nan nan 49 nan
nan nan nan nan nan nan nan nan nan nan nan nan nan nan nan nan nan 30 35 nan nan nan nan nan nan nan nan nan nan nan nan nan nan nan nan nan nan nan nan nan nan nan nan nan
nan nan nan nan nan nan nan nan nan nan nan nan nan nan nan nan nan nan nan nan nan nan nan nan nan nan nan nan nan nan nan nan nan nan nan nan nan nan nan nan nan nan nan nan
nan nan nan nan nan nan nan nan nan nan nan nan nan nan nan nan nan nan nan nan nan nan nan nan nan nan nan nan nan nan nan nan nan nan nan nan nan nan nan nan nan nan nan nan
nan nan nan nan nan nan nan nan nan nan nan nan nan nan nan nan nan nan nan nan nan nan nan nan nan nan nan nan nan nan nan nan nan nan nan nan nan nan nan nan nan nan nan nan
nan nan nan nan nan nan nan nan nan nan nan nan nan nan nan nan nan nan nan nan nan nan nan nan nan nan nan nan nan nan nan nan nan nan nan nan nan nan nan nan nan nan nan nan
nan nan nan nan nan nan nan nan nan nan nan nan nan nan nan nan nan nan nan nan nan nan nan nan nan nan nan nan nan nan nan nan nan nan nan nan nan nan nan nan nan nan nan nan
nan nan nan nan nan nan nan nan nan nan nan nan nan nan nan nan nan nan nan nan nan nan nan nan nan nan nan nan nan nan nan nan nan nan nan nan nan nan nan nan nan nan nan nan
nan nan nan nan nan nan nan nan nan nan nan nan nan nan nan nan nan nan nan nan nan nan nan nan nan nan nan nan nan nan nan nan nan nan nan nan nan nan nan nan nan nan nan nan
nan nan nan nan nan nan nan nan nan nan nan nan nan nan nan nan nan nan nan nan nan nan nan nan nan nan nan nan nan nan nan nan nan nan nan nan nan nan nan nan nan nan nan nan
nan nan nan nan nan nan nan nan nan nan nan nan nan nan nan nan nan nan nan nan nan nan nan nan nan nan nan nan nan nan nan nan nan nan nan nan nan nan nan nan nan nan nan nan
nan nan nan nan nan nan nan nan nan nan nan nan nan nan nan nan nan nan nan nan nan nan nan nan nan nan nan nan nan nan nan nan nan nan nan nan nan nan nan nan nan nan nan nan
nan nan nan nan nan nan nan nan nan nan nan nan nan nan nan nan nan nan nan nan nan nan nan nan nan nan nan nan nan nan nan nan nan nan nan nan nan nan nan nan nan nan nan nan
nan nan nan nan nan nan nan nan nan nan nan nan nan nan nan nan nan nan nan nan nan nan nan nan nan nan nan nan nan nan nan nan nan nan nan nan nan nan nan nan nan nan nan nan
nan nan nan nan nan nan nan nan nan nan nan nan nan nan nan nan nan nan nan nan nan nan nan nan nan nan nan nan nan nan nan nan nan nan nan nan nan nan nan nan nan nan nan nan
nan nan nan nan nan nan nan nan nan nan nan nan nan nan nan nan nan nan nan nan nan nan nan nan nan nan nan nan nan nan nan nan nan nan nan nan nan nan nan nan nan nan nan nan
nan nan nan nan nan nan nan nan nan nan nan nan nan nan nan nan nan nan nan nan nan nan nan nan nan nan nan nan nan nan nan nan nan nan nan nan nan nan nan nan nan nan nan nan
nan nan nan nan nan nan nan nan nan nan nan nan nan nan nan nan nan nan nan nan nan nan nan nan nan nan nan nan nan nan nan nan nan nan nan nan nan nan nan nan nan nan nan nan
nan nan nan nan nan nan nan nan nan nan nan nan nan nan nan nan nan nan nan nan nan nan nan nan nan nan nan nan nan nan nan nan nan nan nan nan nan nan nan nan nan nan nan nan
Wind_Direction
nan nan nan nan nan nan nan nan nan nan 273 258 280 299 298 317 313 309 313 309 287 283 271 266 262 nan nan nan nan nan 285 282 284 283 286 291 293 289 293 297 306 nan nan nan
nan nan nan nan nan nan nan nan nan nan nan 266 295 285 309 292 310 318 312 303 294 296 nan nan nan nan nan nan nan nan nan 282 283 286 290 289 291 295 299 301 304 nan nan nan
nan nan nan nan nan nan nan nan nan nan nan nan 288 280 286 299 287 295 313 299 289 280 nan nan nan nan nan nan nan nan nan nan nan 287 292 293 295 298 299 298 300 305 312 314
nan nan nan nan nan nan nan nan nan nan nan nan nan nan 269 275 276 280 282 303 266 290 nan nan nan nan nan nan nan nan nan nan nan nan 297 295 297 299 302 303 304 302 301 306
nan nan nan nan nan nan nan nan nan nan nan nan nan nan 308 286 291 293 266 262 274 288 nan nan nan nan nan nan nan nan nan nan nan nan nan nan 304 305 305 306 305 305 306 nan
nan nan nan nan nan nan nan nan nan nan nan nan nan nan 294 296 297 298 295 293 297 nan nan nan nan nan nan nan nan nan nan nan nan nan nan nan nan nan nan nan nan 306 305 nan
nan nan nan nan nan nan nan nan nan nan nan nan nan nan 310 296 303 320 328 nan nan nan nan nan nan nan nan nan nan nan nan nan nan nan nan nan nan nan nan nan nan nan 307 305
nan nan nan nan nan nan nan nan nan nan nan nan nan nan nan nan nan 334 327 nan nan nan nan nan nan nan nan nan nan nan nan nan nan nan nan nan nan nan nan nan nan nan 305 nan
nan nan nan nan nan nan nan nan nan nan nan nan nan nan nan nan nan 315 311 nan nan nan nan nan nan nan nan nan nan nan nan nan nan nan nan nan nan nan nan nan nan nan nan nan
nan nan nan nan nan nan nan nan nan nan nan nan nan nan nan nan nan nan nan nan nan nan nan nan nan nan nan nan nan nan nan nan nan nan nan nan nan nan nan nan nan nan nan nan
nan nan nan nan nan nan nan nan nan nan nan nan nan nan nan nan nan nan nan nan nan nan nan nan nan nan nan nan nan nan nan nan nan nan nan nan nan nan nan nan nan nan nan nan
nan nan nan nan nan nan nan nan nan nan nan nan nan nan nan nan nan nan nan nan nan nan nan nan nan nan nan nan nan nan nan nan nan nan nan nan nan nan nan nan nan nan nan nan
nan nan nan nan nan nan nan nan nan nan nan nan nan nan nan nan nan nan nan nan nan nan nan nan nan nan nan nan nan nan nan nan nan nan nan nan nan nan nan nan nan nan nan nan
nan nan nan nan nan nan nan nan nan nan nan nan nan nan nan nan nan nan nan nan nan nan nan nan nan nan nan nan nan nan nan nan nan nan nan nan nan nan nan nan nan nan nan nan
nan nan nan nan nan nan nan nan nan nan nan nan nan nan nan nan nan nan nan nan nan nan nan nan nan nan nan nan nan nan nan nan nan nan nan nan nan nan nan nan nan nan nan nan
nan nan nan nan nan nan nan nan nan nan nan nan nan nan nan nan nan nan nan nan nan nan nan nan nan nan nan nan nan nan nan nan nan nan nan nan nan nan nan nan nan nan nan nan
nan nan nan nan nan nan nan nan nan nan nan nan nan nan nan nan nan nan nan nan nan nan nan nan nan nan nan nan nan nan nan nan nan nan nan nan nan nan nan nan nan nan nan nan
nan nan nan nan nan nan nan nan nan nan nan nan nan nan nan nan nan nan nan nan nan nan nan nan nan nan nan nan nan nan nan nan nan nan nan nan nan nan nan nan nan nan nan nan
nan nan nan nan nan nan nan nan nan nan nan nan nan nan nan nan nan nan nan nan nan nan nan nan nan nan nan nan nan nan nan nan nan nan nan nan nan nan nan nan nan nan nan nan
nan nan nan nan nan nan nan nan nan nan nan nan nan nan nan nan nan nan nan nan nan nan nan nan nan nan nan nan nan nan nan nan nan nan nan nan nan nan nan nan nan nan nan nan
nan nan nan nan nan nan nan nan nan nan nan nan nan nan nan nan nan nan nan nan nan nan nan nan nan nan nan nan nan nan nan nan nan nan nan nan nan nan nan nan nan nan nan nan
nan nan nan nan nan nan nan nan nan nan nan nan nan nan nan nan nan nan nan nan nan nan nan nan nan nan nan nan nan nan nan nan nan nan nan nan nan nan nan nan nan nan nan nan
nan nan nan nan nan nan nan nan nan nan nan nan nan nan nan nan nan nan nan nan nan nan nan nan nan nan nan nan nan nan nan nan nan nan nan nan nan nan nan nan nan nan nan nan
nan nan nan nan nan nan nan nan nan nan nan nan nan nan nan nan nan nan nan nan nan nan nan nan nan nan nan nan nan nan nan nan nan nan nan nan nan nan nan nan nan nan nan nan
nan nan nan nan nan nan nan nan nan nan nan nan nan nan nan nan nan nan nan nan nan nan nan nan nan nan nan nan nan nan nan nan nan nan nan nan nan nan nan nan nan nan nan nan
nan nan nan nan nan nan nan nan nan nan nan nan nan nan nan nan nan nan nan nan nan nan nan nan nan nan nan nan nan nan nan nan nan nan nan nan nan nan nan nan nan nan nan nan